Location: R�serve Fauniques des Laurentides
(47.3100°N, 71.1900°W)
Time: 00:24:31
(UTC-04:00)

Amateur Radio Satellites - All Passes

Search period start: 19 October 2014 23:54
Search period end: 20 October 2014 23:54
Location: R�serve Fauniques des Laurentides, 47.3100°N, 71.1900°W

Satellite Date Start Highest point End Downlink Frequencies (MHz)
Time Altitude Azimuth
UOSAT-12 20 Oct 00:00:53 00:05:33 53° 47° (NE) 00:10:08 437.025 FM, 437.400 FM
RS-15 20 Oct 00:40:24 00:51:19 69° 314° (NW) 01:02:18 29.354 - 29.394 USB, Beacon 29.352 USB
MaSat-1 20 Oct 00:46:35 00:50:31 36° 113° (ESE) 00:54:07 437.345 MHz
Oscar 16 20 Oct 01:18:33 01:22:16 20° 91° (E) 01:25:58 437.025 USB, Beacon 2401.1428
Uribyol 2 20 Oct 01:30:12 01:31:21 11° 85° (E) 01:32:30 436.500 FM
ITAMSAT 1 20 Oct 01:34:27 01:35:58 11° 86° (E) 01:37:29 435.822 SSB
UOSAT-12 20 Oct 01:41:35 01:45:24 25° 246° (WSW) 01:49:10 437.025 FM, 437.400 FM
AO-Echo 20 Oct 01:57:36 02:01:55 25° 93° (E) 02:06:14 ?
JAS-1B 20 Oct 02:06:10 02:12:10 44° 99° (E) 02:19:08 435.800 - 435.900 CW/SSB
Oscar 19 20 Oct 02:12:07 02:17:10 56° 101° (E) 02:22:11 437.125 CW, 437.150 USB
AO-27 20 Oct 02:16:17 02:20:45 28° 94° (E) 02:25:11 436.795 MHz FM
MaSat-1 20 Oct 02:22:51 02:26:23 26° 308° (NW) 02:29:38 437.345 MHz
RS-15 20 Oct 02:56:21 03:06:02 34° 345° (NNW) 03:15:53 29.354 - 29.394 USB, Beacon 29.352 USB
Oscar 16 20 Oct 02:56:59 03:02:02 60° 289° (WNW) 03:07:04 437.025 USB, Beacon 2401.1428
Gurwin Techsat 1B 20 Oct 02:58:53 03:03:45 35° 96° (E) 03:08:35 435.225 FM
Uribyol 2 20 Oct 03:06:28 03:11:43 77° 104° (ESE) 03:16:55 436.500 FM
ITAMSAT 1 20 Oct 03:11:03 03:16:20 79° 104° (ESE) 03:21:33 435.822 SSB
TMSAT-1 20 Oct 03:13:43 03:18:36 36° 96° (E) 03:23:26 436.925 FM
AO-Echo 20 Oct 03:35:50 03:40:55 51° 290° (WNW) 03:46:03 ?
Oscar 19 20 Oct 03:52:12 03:56:09 23° 299° (WNW) 04:00:05 437.125 CW, 437.150 USB
AO-27 20 Oct 03:55:28 04:00:27 45° 292° (WNW) 04:05:24 436.795 MHz FM
JAS-1B 20 Oct 03:57:11 04:02:48 38° 295° (WNW) 04:09:14 435.800 - 435.900 CW/SSB
OPAL 20 Oct 04:08:31 04:13:21 42° 65° (ENE) 04:18:09 ?
JAS-2 20 Oct 04:29:56 04:33:36 14° 82° (E) 04:37:19 435.800 - 435.900 CW/SSB, 435.910 FM
Sapphire 20 Oct 04:34:25 04:39:02 29° 110° (ESE) 04:43:40 437.095 MHz 1200 baud AX-25 AFSK
AO-7 20 Oct 04:37:05 04:44:58 45° 99° (E) 04:52:49 29.400 - 29.500 MHz
Gurwin Techsat 1B 20 Oct 04:38:53 04:43:43 37° 294° (WNW) 04:48:33 435.225 FM
Oscar 16 20 Oct 04:39:32 04:40:22 10° 309° (NW) 04:41:12 437.025 USB, Beacon 2401.1428
Uribyol 2 20 Oct 04:47:07 04:50:36 18° 303° (WNW) 04:54:05 436.500 FM
ITAMSAT 1 20 Oct 04:51:47 04:55:12 18° 303° (WNW) 04:58:38 435.822 SSB
TMSAT-1 20 Oct 04:53:42 04:58:31 36° 295° (WNW) 05:03:18 436.925 FM
PCSat 20 Oct 04:56:53 05:02:02 47° 115° (ESE) 05:07:14 145.825 MHz
RS-15 20 Oct 05:12:22 05:22:17 36° 19° (NNE) 05:32:27 29.354 - 29.394 USB, Beacon 29.352 USB
Uosat F 20 Oct 05:15:50 05:20:54 69° 103° (ESE) 05:25:55 435.120 FM
STRAND 1 20 Oct 05:44:34 05:49:05 32° 64° (ENE) 05:53:38 ?
OPAL 20 Oct 05:47:49 05:52:20 30° 262° (W) 05:56:50 ?
JAS-2 20 Oct 06:12:21 06:19:54 65° 101° (E) 06:27:42 435.800 - 435.900 CW/SSB, 435.910 FM
Sapphire 20 Oct 06:16:57 06:22:13 51° 310° (NW) 06:27:32 437.095 MHz 1200 baud AX-25 AFSK
AO-7 20 Oct 06:29:57 06:37:51 50° 300° (WNW) 06:45:46 29.400 - 29.500 MHz
PCSat 20 Oct 06:40:41 06:45:38 35° 316° (NW) 06:50:36 145.825 MHz
Hamsat 20 Oct 06:44:25 06:48:38 85° 103° (ESE) 06:52:49 145.90 MHz
Uosat F 20 Oct 06:55:40 06:59:10 19° 302° (WNW) 07:02:40 435.120 FM
SO-67 20 Oct 06:56:44 06:58:43 15° 91° (E) 07:00:42 435.3500 MHz FM
STRAND 1 20 Oct 07:23:27 07:28:12 38° 263° (W) 07:33:00 ?
RS-15 20 Oct 07:25:35 07:36:44 76° 49° (NE) 07:48:19 29.354 - 29.394 USB, Beacon 29.352 USB
Saudisat 1A 20 Oct 07:56:08 07:58:14 13° 110° (ESE) 08:00:20 436.775 MHz
JAS-2 20 Oct 07:57:57 08:04:30 34° 299° (WNW) 08:11:19 435.800 - 435.900 CW/SSB, 435.910 FM
Sapphire 20 Oct 08:03:49 08:06:57 15° 333° (NNW) 08:10:06 437.095 MHz 1200 baud AX-25 AFSK
Hamsat 20 Oct 08:22:26 08:23:57 12° 301° (WNW) 08:25:29 145.90 MHz
AO-7 20 Oct 08:24:30 08:28:46 15° 323° (NW) 08:33:02 29.400 - 29.500 MHz
PCSat 20 Oct 08:28:37 08:30:45 12° 340° (NNW) 08:32:53 145.825 MHz
SO-67 20 Oct 08:28:39 08:31:54 39° 288° (WNW) 08:35:08 435.3500 MHz FM
MaSat-1 20 Oct 08:56:18 08:57:23 12° 43° (NE) 08:58:25 437.345 MHz
HO-68 20 Oct 09:03:49 09:10:17 34° 95° (E) 09:16:41 435.675 MHz FM
UKube-1 20 Oct 09:31:18 09:34:22 18° 92° (E) 09:37:24 145.840 MHz, 145.915 MHz
Saudisat 1A 20 Oct 09:32:46 09:37:09 84° 308° (NW) 09:41:36 436.775 MHz
RS-15 20 Oct 09:38:34 09:48:18 37° 252° (WSW) 09:58:25 29.354 - 29.394 USB, Beacon 29.352 USB
FUNcube-1 20 Oct 10:02:27 10:05:02 15° 89° (E) 10:07:34 145.950 - 145.970 MHz USB
Oscar 11 20 Oct 10:16:46 10:20:57 48° 99° (E) 10:25:06 145.825 FM, Beacon 2401.500 USB
MaSat-1 20 Oct 10:30:50 10:33:31 41° 246° (WSW) 10:35:57 437.345 MHz
HO-68 20 Oct 10:51:17 10:58:16 55° 295° (WNW) 11:05:13 435.675 MHz FM
ZACube-1 20 Oct 10:51:31 10:55:44 48° 99° (E) 10:59:50 437.345 MHz
UKube-1 20 Oct 11:06:36 11:10:51 51° 290° (WNW) 11:15:04 145.840 MHz, 145.915 MHz
Saudisat 1A 20 Oct 11:14:17 11:17:24 19° 329° (NNW) 11:20:32 436.775 MHz
Sapphire 20 Oct 11:35:50 11:38:57 15° 27° (NNE) 11:42:03 437.095 MHz 1200 baud AX-25 AFSK
FUNcube-1 20 Oct 11:37:34 11:41:50 57° 288° (WNW) 11:45:59 145.950 - 145.970 MHz USB
KITSAT 1 20 Oct 11:42:32 11:47:20 17° 100° (E) 11:52:08 435.175 FM
Oscar 11 20 Oct 11:53:41 11:56:49 20° 297° (WNW) 11:59:57 145.825 FM, Beacon 2401.500 USB
Oscar 19 20 Oct 11:55:07 11:58:33 18° 58° (ENE) 12:01:59 437.125 CW, 437.150 USB
PCSat 20 Oct 11:58:43 12:02:38 20° 33° (NNE) 12:06:32 145.825 MHz
AO-27 20 Oct 12:03:31 12:04:01 10° 50° (NE) 12:04:31 436.795 MHz FM
ZACube-1 20 Oct 12:28:40 12:31:48 20° 298° (WNW) 12:34:53 437.345 MHz
Oscar 16 20 Oct 12:38:15 12:43:03 40° 67° (ENE) 12:47:51 437.025 USB, Beacon 2401.1428
HO-68 20 Oct 12:41:01 12:44:29 14° 317° (NW) 12:47:57 435.675 MHz FM
Gurwin Techsat 1B 20 Oct 12:46:51 12:49:15 13° 53° (NE) 12:51:39 435.225 FM
Uribyol 2 20 Oct 12:49:32 12:53:42 25° 61° (ENE) 12:57:54 436.500 FM
ITAMSAT 1 20 Oct 12:54:12 12:58:25 26° 61° (ENE) 13:02:39 435.822 SSB
JAS-1B 20 Oct 12:56:10 13:01:54 47° 67° (ENE) 13:07:18 435.800 - 435.900 CW/SSB
TMSAT-1 20 Oct 13:01:23 13:03:47 13° 53° (NE) 13:06:11 436.925 FM
AO-Echo 20 Oct 13:13:38 13:18:10 41° 67° (ENE) 13:22:52 ?
Sapphire 20 Oct 13:18:24 13:23:42 50° 50° (NE) 13:28:59 437.095 MHz 1200 baud AX-25 AFSK
Oscar 19 20 Oct 13:32:10 13:37:20 75° 257° (WSW) 13:42:30 437.125 CW, 437.150 USB
KITSAT 1 20 Oct 13:33:21 13:41:23 75° 121° (ESE) 13:49:28 435.175 FM
AO-27 20 Oct 13:37:22 13:42:27 57° 70° (ENE) 13:47:35 436.795 MHz FM
PCSat 20 Oct 13:41:31 13:46:59 76° 55° (NE) 13:52:24 145.825 MHz
AO-7 20 Oct 13:50:05 13:55:58 22° 45° (NE) 14:01:52 29.400 - 29.500 MHz
SO-50 20 Oct 14:04:36 14:08:49 41° 119° (ESE) 14:13:11 436.795 FM
Oscar 16 20 Oct 14:17:58 14:22:30 30° 265° (W) 14:27:03 437.025 USB, Beacon 2401.1428
Gurwin Techsat 1B 20 Oct 14:23:02 14:28:19 74° 73° (ENE) 14:33:39 435.225 FM
Uribyol 2 20 Oct 14:27:46 14:32:51 53° 260° (W) 14:38:00 436.500 FM
ITAMSAT 1 20 Oct 14:32:33 14:37:37 52° 260° (W) 14:42:44 435.822 SSB
TMSAT-1 20 Oct 14:37:32 14:42:49 74° 73° (ENE) 14:48:08 436.925 FM
Saudisat 1A 20 Oct 14:39:12 14:40:27 11° 18° (NNE) 14:41:42 436.775 MHz
JAS-1B 20 Oct 14:47:46 14:52:52 28° 265° (W) 14:57:42 435.800 - 435.900 CW/SSB
ISS 20 Oct 14:52:33 14:55:40 37° 145° (SE) 14:58:47 145.800 FM
AO-Echo 20 Oct 14:52:58 14:57:05 27° 267° (W) 15:01:21 ?
Uosat F 20 Oct 14:55:19 14:58:59 21° 59° (ENE) 15:02:39 435.120 FM
Sapphire 20 Oct 15:02:13 15:06:55 30° 249° (WSW) 15:11:35 437.095 MHz 1200 baud AX-25 AFSK
Oscar 19 20 Oct 15:16:50 15:17:33 10° 275° (W) 15:18:16 437.125 CW, 437.150 USB
AO-27 20 Oct 15:18:22 15:22:20 22° 268° (W) 15:26:19 436.795 MHz FM
PCSat 20 Oct 15:26:06 15:29:46 19° 254° (WSW) 15:33:26 145.825 MHz
KITSAT 1 20 Oct 15:30:08 15:37:30 37° 324° (NW) 15:44:55 435.175 FM
AO-7 20 Oct 15:39:17 15:47:31 76° 67° (ENE) 15:55:48 29.400 - 29.500 MHz
SO-50 20 Oct 15:45:20 15:49:29 34° 320° (NW) 15:53:45 436.795 FM
UOSAT-12 20 Oct 15:54:40 15:59:07 48° 121° (ESE) 16:03:40 437.025 FM, 437.400 FM
Gurwin Techsat 1B 20 Oct 16:05:28 16:08:52 17° 271° (W) 16:12:17 435.225 FM
Hamsat 20 Oct 16:08:12 16:09:26 11° 58° (ENE) 16:10:40 145.90 MHz
Saudisat 1A 20 Oct 16:17:21 16:21:22 32° 41° (NE) 16:25:22 436.775 MHz
TMSAT-1 20 Oct 16:19:56 16:23:19 17° 271° (W) 16:26:42 436.925 FM
JAS-2 20 Oct 16:28:37 16:33:58 37° 62° (ENE) 16:39:58 435.800 - 435.900 CW/SSB, 435.910 FM
Oscar 10/S400 20 Oct 16:28:48 16:46:52 45° 164° (SSE) 17:43:41 145.825 - 145.975 CW/USB, Beacon 145.810 USB
ISS 20 Oct 16:29:01 16:32:19 54° 343° (NNW) 16:35:37 145.800 FM
Uosat F 20 Oct 16:32:21 16:37:19 63° 258° (WSW) 16:42:20 435.120 FM
SO-50 20 Oct 17:29:36 17:31:28 12° 343° (NNW) 17:33:21 436.795 FM
KITSAT 1 20 Oct 17:29:49 17:35:35 21° 353° (N) 17:41:22 435.175 FM
AO-7 20 Oct 17:34:21 17:41:05 27° 268° (W) 17:47:53 29.400 - 29.500 MHz
UOSAT-12 20 Oct 17:35:17 17:39:28 31° 321° (NW) 17:43:43 437.025 FM, 437.400 FM
Hamsat 20 Oct 17:40:29 17:44:44 89° 75° (ENE) 17:48:57 145.90 MHz
OPAL 20 Oct 17:53:43 17:58:37 53° 103° (ESE) 18:03:27 ?
Saudisat 1A 20 Oct 17:56:53 18:01:02 40° 240° (WSW) 18:05:10 436.775 MHz
ISS 20 Oct 18:06:15 18:09:25 38° 3° (N) 18:12:34 145.800 FM
JAS-2 20 Oct 18:13:30 18:18:58 43° 265° (W) 18:25:10 435.800 - 435.900 CW/SSB, 435.910 FM
SO-67 20 Oct 19:03:46 19:07:12 77° 258° (WSW) 19:10:40 435.3500 MHz FM
SO-50 20 Oct 19:13:50 19:14:13 10° 8° (N) 19:14:36 436.795 FM
UOSAT-12 20 Oct 19:19:20 19:21:06 12° 344° (NNW) 19:22:52 437.025 FM, 437.400 FM
KITSAT 1 20 Oct 19:27:38 19:34:11 26° 23° (NNE) 19:40:43 435.175 FM
STRAND 1 20 Oct 19:30:18 19:35:24 57° 101° (E) 19:40:28 ?
OPAL 20 Oct 19:33:15 19:37:11 24° 301° (WNW) 19:41:05 ?
HO-68 20 Oct 19:35:51 19:42:16 37° 59° (ENE) 19:48:42 435.675 MHz FM
ISS 20 Oct 19:43:03 19:46:25 79° 23° (NNE) 19:49:45 145.800 FM
UKube-1 20 Oct 20:29:41 20:33:13 25° 64° (ENE) 20:36:46 145.840 MHz, 145.915 MHz
SO-50 20 Oct 20:52:52 20:56:35 22° 33° (NNE) 21:00:21 436.795 FM
FUNcube-1 20 Oct 21:01:28 21:04:55 21° 63° (ENE) 21:08:21 145.950 - 145.970 MHz USB
UOSAT-12 20 Oct 21:02:52 21:03:26 10° 9° (N) 21:04:00 437.025 FM, 437.400 FM
STRAND 1 20 Oct 21:10:14 21:14:13 23° 300° (WNW) 21:18:11 ?
Oscar 11 20 Oct 21:14:37 21:18:52 56° 72° (ENE) 21:23:07 145.825 FM, Beacon 2401.500 USB
ISS 20 Oct 21:20:13 21:22:49 21° 221° (SW) 21:25:25 145.800 FM
HO-68 20 Oct 21:22:48 21:29:46 53° 259° (W) 21:36:47 435.675 MHz FM
KITSAT 1 20 Oct 21:23:14 21:31:17 64° 49° (NE) 21:39:17 435.175 FM
ZACube-1 20 Oct 21:50:29 21:55:01 59° 72° (ENE) 21:59:31 437.345 MHz
RS-15 20 Oct 21:54:54 22:03:58 32° 105° (ESE) 22:12:58 29.354 - 29.394 USB, Beacon 29.352 USB
UKube-1 20 Oct 22:05:10 22:09:14 38° 262° (W) 22:13:20 145.840 MHz, 145.915 MHz
SO-50 20 Oct 22:32:56 22:37:47 89° 235° (SW) 22:42:41 436.795 FM
FUNcube-1 20 Oct 22:36:30 22:40:59 50° 261° (W) 22:45:26 145.950 - 145.970 MHz USB
UOSAT-12 20 Oct 22:41:37 22:45:22 22° 33° (NNE) 22:49:04 437.025 FM, 437.400 FM
Oscar 11 20 Oct 22:52:40 22:55:24 16° 270° (W) 22:58:08 145.825 FM, Beacon 2401.500 USB
KITSAT 1 20 Oct 23:19:09 23:26:17 36° 251° (WSW) 23:33:25 435.175 FM
ZACube-1 20 Oct 23:28:45 23:31:46 17° 270° (W) 23:34:47 437.345 MHz
